User: anonymous   Login
Location: Αθήνα
(37.9839°N, 23.7283°E)
Time: 16:18:48
(UTC+03:00)
Language:

MOZHAYETS 4 - Orbit

View from above orbital plane
View from above orbital plane
View from above satellite
View from above satellite

Ground track
Ground track

The orbit data is extracted from the following two-line orbital elements,

1 27939U 03042A   24170.18680644  .00001661  00000-0  28545-3 0  9991
2 27939  98.2909 326.4022 0013005  60.7111 112.4191 14.69984437108422
Epoch (UTC): 18 June 2024 04:29:00
Eccentricity: 0.0013005
inclination: 98.2909°
perigee height: 652 km
apogee height: 670 km
right ascension of ascending node: 326.4022°
argument of perigee: 60.7111°
revolutions per day: 14.69984437
mean anomaly at epoch: 112.4191°
orbit number at epoch: 10842

The dashed part of the orbit path shows where the satellite is in the earth's shadow,  

DLR